Regional Weather Roundup
Issued by NWS Pendleton, OR

Home | Current Version | Previous Version | Text Only | Print | Product List | Glossary On
Versions: 1 2 3 4 5 6 7 8 9 10 11 12 13 14 15 16 17 18 19 20 21 22 23 24 25 26 27 28 29 30 31 32 33 34 35 36 37 38 39 40 41 42 43 44 45 46 47 48 49 50
000
ASUS46 KPDT 210325
RWRPDT
PENDLETON REGIONAL WEATHER ROUNDUP
NATIONAL WEATHER SERVICE PENDLETON OREGON
700 PM PST THU NOV 20 2014

NOTE: FAIR INDICATES FEW OR NO CLOUDS BELOW 12,000 FEET WITH NO
SIGNIFICANT WEATHER AND/OR OBSTRUCTIONS TO VISIBILITY.

# INDICATES UNOFFICIAL STATION AND DATA

WAZ520-210410-
EAST SLOPES OF WASHINGTON CASCADES

CITY            SKY/WX      TMP DP  RH  WIND    PRES   REMARKS
#BUMPING DAM    N/A         32  N/A N/A NW6     N/A
#CLE ELUM HS    N/A         33  29  85  CALM    29.94R
#CLE ELUM 2NW   N/A         31  29  92  S2      N/A
#CLE ELUM LAKE  N/A         32  30  92  CALM    30.05F
#CLIFFDEL 2NW   N/A         32  26  78  CALM    N/A
#GLENWOOD       N/A         33  32  96  CALM    30.07R
#MANASTASH CYN  N/A         30  24  78  CALM    29.93F
#NELSON         N/A         31  28  88  CALM    30.07F
#NELSON 3SW     N/A         30  28  92  CALM    30.27S
#NILE           N/A         30  25  81  CALM    29.30F
#RONALD 2NW     N/A         34  29  82  CALM    29.83S
#SNOWDEN        N/A         33  28  82  CALM    N/A
#TEANAWAY 4NE   N/A         31  28  88  CALM    N/A
#TROUT LAKE HS  N/A         34  34  100 CALM    N/A
#TROUT LAKE 1NE N/A         32  31  96  CALM    30.08S
$$

WAZ521-210410-
SIMCOE HIGHLANDS

CITY            SKY/WX      TMP DP  RH  WIND    PRES   REMARKS
#BICKLETON HS   N/A         36  33  89  CALM    30.06S
#CENTERVILLE 4W N/A         31  27  85  NE2     29.75S
#CENTERVILLE 1SWN/A         26  23  88  CALM    30.08R
#GOLDENDALE     N/A         29  28  96  S7      N/A
#GOLDENDALE 1NE N/A         28  25  88  CALM    N/A
#GOLDENDALE 1S  N/A         27  25  92  CALM    29.98S
#GOODNOE HILLS  N/A         29  25  85  N3      N/A
#LYLE 6NE       N/A         31  29  92  CALM    30.07R
$$

WAZ026-210410-
KITTITAS VALLEY

CITY            SKY/WX      TMP DP  RH  WIND    PRES   REMARKS
ELLENSBURG AP   CLOUDY      34  26  72  MISG    29.99F HAZE
#ELLENSBURG CWU N/A         32  26  78  CALM    30.01S
#ELLENSBURG 3NE N/A         31  27  85  CALM    30.00S
#ELLENSBURG     N/A         35  31  85  CALM    N/A
#ELLENSBURG 1E  N/A         33  26  75  CALM    N/A
#KITTITAS 4N    N/A         31  24  75  CALM    30.04S
#KITTITAS 3S    N/A         29  26  88  CALM    30.05S
#THORP 6N       N/A         33  29  85  CALM    30.08S
$$

WAZ027-210410-
YAKIMA VALLEY

CITY            SKY/WX      TMP DP  RH  WIND    PRES   REMARKS
SUNNYSIDE AP    CLOUDY      30  28  92  CALM    30.06S FOG
YAKIMA AIRPORT  CLOUDY      35  27  72  NE3     30.05R HAZE
YAKIMA-VAGABOND MOCLDY      32  27  82  CALM    30.03S FOG
#DONALD 2NE     N/A         32  26  78  CALM    28.90R
#GRANDVIEW      N/A         31  27  85  CALM    30.11S
#MABTON         N/A         32  30  92  CALM    30.06S
#NACHES 2SW     N/A         28  24  85  CALM    29.99S
#OUTLOOK DOT    N/A         N/A N/A N/A E1      N/A
#SELAH 8E       N/A         29  25  85  SE3     N/A
#TERRACE HTS    N/A         32  27  82  CALM    30.07R
#TOPPENISH      N/A         33  28  82  CALM    30.01S
#WAPATO 4NE     N/A         32  26  78  CALM    28.90R
#WEST VALLEY    N/A         34  27  75  CALM    30.08R
#W YAKIMA       N/A         33  27  78  CALM    30.09S
#WHITE SWAN 5E  N/A         31  27  85  CALM    30.11R
#WILEY CITY 3W  N/A         30  22  72  CALM    30.04S
$$

WAZ028-210410-
LOWER COLUMBIA BASIN...WASHINGTON

CITY            SKY/WX      TMP DP  RH  WIND    PRES   REMARKS
PASCO           CLOUDY      31  30  96  NW8     30.08F FOG
PROSSER AWOS    N/A         32  30  92  NE6     30.10R
#BASIN CITY 5SW N/A         31  29  92  W3      30.07S
#BENTON CITY    N/A         30  28  92  CALM    30.01S
#CONNELL 5N     N/A         31  29  92  CALM    30.10S
#CONNELL 5NW    N/A         31  29  92  CALM    30.06S
#ELTOPIA        N/A         33  30  89  CALM    30.06F
#ELTOPIA 6NW    N/A         30  29  96  NW6     29.01F
#KAHLOTUS       N/A         32  31  96  CALM    30.10S
#KENNEWICK 3S   N/A         30  28  92  CALM    30.11S
#PATERSON       N/A         31  29  92  NW3     30.08S
#PROSSER        N/A         30  27  88  CALM    30.10S
#SAGEMOOR 2W    N/A         31  29  92  NW5     29.94S
#TOUCHET 2S     N/A         32  29  89  CALM    30.07F
#WEST PASCO     N/A         33  29  85  NW2     30.10R
$$

WAZ029-210410-
FOOTHILLS OF THE BLUES...WASHINGTON

CITY            SKY/WX      TMP DP  RH  WIND    PRES   REMARKS
WALLA WALLA AP  CLOUDY      32  29  89  E3      30.03S FOG
#COLLEGE PLACE  N/A         36  26  67  CALM    30.08R
#DAYTON SCHOOL  N/A         32  26  78  CALM    30.01S
#LOWDEN 2SE     N/A         32  30  92  CALM    30.02F
#PLEASANT VIEW 1N/A         31  30  96  CALM    30.14F
#PRESCOTT       N/A         33  31  92  CALM    30.08F
#SUDBURY        N/A         34  N/A N/A CALM    N/A
#WHITMAN COLLEGEN/A         33  30  89  CALM    30.14F
#WAITSBURG 5S   N/A         30  29  96  CALM    30.19F
#WAITSBURG 8N   N/A         33  26  75  CALM    29.94S
#WALLA WALLA 5E N/A         30  29  96  S6      N/A
#WALLA WALLA U  N/A         34  31  89  CALM    30.08F
#WHITMAN MISSIONN/A         32  29  89  CALM    30.10S
$$

WAZ030-210410-
BLUE MOUNTAINS...WASHINGTON

CITY            SKY/WX      TMP DP  RH  WIND    PRES   REMARKS
#DIXIE 5SE      N/A         42  35  76  CALM    29.89F
$$

ORZ009-041-WAZ024-210410-
COLUMBIA RIVER GORGE

CITY            SKY/WX      TMP DP  RH  WIND    PRES   REMARKS
HOOD RIVER AP   CLOUDY      34  32  92  CALM    30.06S FOG
THE DALLES AP   CLOUDY      34  29  82  CALM    30.09R HAZE
#ARLINGTON AIRPON/A         31  30  96  CALM    30.03S
#CELILO DOT     N/A         35  28  75  CALM    N/A
#MARYHILL 2W    N/A         33  32  96  CALM    N/A
#MOSIER 1S      N/A         32  27  82  SW6     30.06S
#MURDOCK        N/A         36  32  85  E1      30.11S
#RUFUS DOT      N/A         35  30  82  S1      N/A

$$

ORZ510-210410-
NORTH CENTRAL OREGON

CITY            SKY/WX      TMP DP  RH  WIND    PRES   REMARKS
#CHENOWITH 1W   N/A         29  25  85  E3      N/A
#COW CYN RST AREN/A         38  33  82  N3      N/A
#DUFUR 9E       N/A         29  26  88  SW1     30.15R
#GRASS VALLEY   N/A         26  26  100 E1      N/A
#GRASS VALLEY 1SN/A         27  25  92  CALM    30.13R
#KENT DOT       N/A         28  24  85  W3      N/A
#MAUPIN SCHOOL  N/A         32  27  82  CALM    28.93R
#MORO SCHOOL    N/A         26  25  96  CALM    30.02S
#SHANIKO 5WSW   N/A         39  30  70  N1      N/A
#SHANIKO 4NW    N/A         39  33  79  N2      29.95R
#TYGH VALLEY 2NEN/A         30  26  85  CALM    30.10R
#WAPANITIA AIRPON/A         27  25  92  CALM    30.11S
#WASCO DOT      N/A         26  24  92  CALM    N/A
#WASCO 5NE      N/A         21  19  92  CALM    30.11S
$$

ORZ511-210410-
CENTRAL OREGON

CITY            SKY/WX      TMP DP  RH  WIND    PRES   REMARKS
BEND AIRPORT    CLOUDY      37  34  89  S6      29.97R
MADRAS AIRPORT  MOCLDY      27  25  92  E3      30.00R
PRINEVILLE AP   CLOUDY      36  34  92  SW3     29.97R
REDMOND AIRPORT CLOUDY      33  31  92  CALM    29.95S
#BEND 6E        N/A         38  32  79  CALM    30.01R
#BEND 1SW       N/A         36  35  96  SW1     N/A
#BEND-AWBREY    N/A         40  36  85  N3      30.01S
#BEND-KIM LN    N/A         38  35  89  CALM    29.93R
#CROOKED RVR RANN/A         32  29  89  S15     30.09R WCI 22
#CULVER         N/A         29  26  88  CALM    29.93S
#LAKE BILLY CHINN/A         32  28  85  CALM    30.10R
#POWELL BUTTE 3EN/A         38  33  82  SE2     N/A
#POWELL BUTTE   N/A         40  34  79  S2      29.60R
#PRINEVILLE 3N  N/A         38  34  85  N2      30.02R
#WARM SPRINGS   N/A         29  26  88  CALM    29.99R


ORZ509-210410-
EAST SLOPES OF OREGON CASCADES

CITY            SKY/WX      TMP DP  RH  WIND    PRES   REMARKS
#BLUE BOX PASS  N/A         37  -11 12  N3      N/A
#BLACK BUTTE RNCN/A         35  33  92  CALM    30.06S
#CAMP SHERMAN   N/A         33  31  92  CALM    30.06R
#LA PINE DOT    N/A         38  36  92  CALM    N/A
#LA PINE 4NW    N/A         37  33  85  CALM    30.04R
#LAVA BUTTE DOT N/A         35  33  92  S6      N/A
#MT BACHELOR-MIDN/A         29  28  96  S16     N/A    WCI 17
#SISTERS AIRPOR N/A         34  34  100 CALM    29.91S
#SISTERS ODOT   N/A         34  N/A N/A CALM    N/A
#SISTERS 3N     N/A         32  29  89  CALM    29.98S
#SUNRIVER       N/A         36  34  92  CALM    29.90R
#SUNRIVER AP    N/A         44  43  96  CALM    29.95F
#TUMALO 3W      N/A         38  34  85  S1      29.92S
#WANOGA BUTTE D N/A         32  32  100 W6      N/A

$$

ORZ044-210410-
LOWER COLUMBIA BASIN...OREGON

CITY            SKY/WX      TMP DP  RH  WIND    PRES   REMARKS
HERMISTON       CLOUDY      31  28  88  NW5     30.06S FOG
#BOARDMAN 3W    N/A         29  26  88  SW2     29.79S
#BOARDMAN 8SW   N/A         31  29  92  CALM    30.09S
#ECHO 8SW       N/A         30  26  85  CALM    30.03S
#IONE SCHOOL    N/A         27  19  71  CALM    30.03S
#IRRIGON 4NW    N/A         33  30  89  W3      N/A
#UMATILLA SCHOOLN/A         28  28  100 CALM    30.14R
#UMATILLA       N/A         33  28  82  CALM    30.05S
$$

ORZ507-210410-
NORTHERN FOOTHILLS OF THE BLUES

CITY            SKY/WX      TMP DP  RH  WIND    PRES   REMARKS
PENDLETON AIRPT CLOUDY      30  29  96  CALM    30.00F FOG
#ADAMS 3WNW     N/A         28  26  92  CALM    30.07F
#ATHENA         N/A         28  27  96  CALM    30.11F
#CAYUSE         N/A         31  30  96  CALM    30.08F
#HELIX SCHOOL   N/A         31  29  92  CALM    30.08F
#HELIX 3N       N/A         31  28  88  N3      29.96S
#HELIX 6SW      N/A         30  28  92  CALM    29.99F
#HOLDMAN 5SE    N/A         31  30  96  CALM    30.02S
#HOLDMAN 6E     N/A         30  29  96  CALM    29.90S
#M-F FERNDALE   N/A         31  26  81  CALM    30.03F
#M-F GROVE ELEM N/A         31  28  88  CALM    30.01F
#M-FREEWATER 5SEN/A         31  29  92  CALM    30.01F
#PENDLETON DNTN N/A         32  29  89  CALM    28.82F
#PDT AQUATIC CTRN/A         33  28  82  CALM    30.00F
#PENDLETON 5NE  N/A         31  29  92  CALM    29.96F
#PDT SUNRIDGE   N/A         31  29  92  CALM    30.03F
#PENDLETON 7NW  N/A         32  29  89  CALM    27.53F
#PILOT ROCK     N/A         31  27  85  N1      30.00F
#TUTUILLA       N/A         31  29  92  CALM    30.06F
#UMAPINE 2E     N/A         31  29  92  CALM    30.02S
#WESTON SCHOOL  N/A         29  26  88  CALM    29.96F

$$

ORZ508-210410-
SOUTHERN FOOTHILLS OF THE BLUES

CITY            SKY/WX      TMP DP  RH  WIND    PRES   REMARKS
LEXINGTON       FRZFOG      30  30  100 MISG    30.03R VSB<1/4
#AJAX           N/A         27  20  74  CALM    29.94R
#CONDON SCHOOL  N/A         35  32  89  CALM    29.93S
#CONDON 5W      N/A         38  33  82  SW1     29.93S
#FOSSIL SCHOOL  N/A         34  31  89  CALM    29.94S
#HEPPNER EOC    N/A         30  27  88  CALM    30.03S
#HEPPNER 4NE    N/A         32  30  92  CALM    30.06S
#LEXINGTON 2SE  N/A         28  25  88  CALM    29.97S
#MIKKALO        N/A         24  20  84  CALM    30.02R
#OLEX 4N        N/A         27  25  92  CALM    30.03R
#RUGGS 5NE      N/A         40  36  85  E3      30.14S
#RUGGS 2SW      N/A         32  30  92  CALM    30.09S

$$

ORZ502-503-210410-
BLUE MOUNTAINS

CITY            SKY/WX      TMP DP  RH  WIND    PRES   REMARKS
MEACHAM         CLOUDY      34  30  85  CALM    29.97F
#BATTLE MTN DOT N/A         36  36  100 S7      N/A
#HEPPNER 15SE   N/A         37  33  85  CALM    29.85F
#LADD CYN SMT   N/A         30  25  81  CALM    N/A
#LADD CREEK ODOTN/A         32  28  85  SW6     N/A
#LONG CREEK HS  N/A         39  37  92  CALM    29.91S
#N POWDER DOT   N/A         29  28  96  E3      N/A
#PIKES PEAK     N/A         43  34  70  S2      27.99S
#TOLLGATE       N/A         28  27  96  NE1     29.90S
#TROY SCHOOL    N/A         35  32  89  CALM    29.96F
#UKIAH          N/A         32  30  92  CALM    30.10S
#WESTON 4E      N/A         36  32  85  E9      29.97F
$$

ORZ505-210410-
JOHN DAY BASIN

CITY            SKY/WX      TMP DP  RH  WIND    PRES   REMARKS
JOHN DAY        CLOUDY      40  35  82  E6      29.97F
#JOHN DAY KJDY  N/A         39  34  82  NE1     30.08R
#DAYVILLE SCHOOLN/A         39  34  82  CALM    29.95S
#MONUMENT HS    N/A         33  29  85  CALM    29.99S
#MT. VERNON 5SE N/A         42  34  73  E7      29.92F
#WINLOCK        N/A         37  33  85  CALM    30.05R
$$

ORZ506-210410-
OCHOCO AND JOHN DAY HIGHLANDS

CITY            SKY/WX      TMP DP  RH  WIND    PRES   REMARKS
#BUCK CREEK DOT N/A         38  38  100 SE7     N/A
#HORSE RIDGE DO N/A         34  33  96  SE2     N/A
#KEYES SMT DOT  N/A         38  32  79  CALM    N/A
#PAULINA SCHOOL N/A         34  32  92  CALM    29.96F
#PINE MTN OBS   N/A         32  31  96  S7      N/A
#PRAIRIE CITY   N/A         32  28  85  CALM    30.12R
#SENECA         N/A         32  N/A N/A CALM    N/A
#SENECA 9NW     N/A         32  31  96  CALM    30.05F
$$

ORZ049-210410-
GRANDE RONDE VALLEY

CITY            SKY/WX      TMP DP  RH  WIND    PRES   REMARKS
LA GRANDE       CLOUDY      37  27  67  S14     30.01F WCI 28
#COVE           N/A         31  26  81  CALM    30.03S
#COVE SCHOOL    N/A         32  29  89  CALM    30.00F
#COVE 6NW       N/A         33  28  82  CALM    30.16F
#ELGIN 3N       N/A         30  24  78  CALM    29.76F
#ELGIN 1E       N/A         33  28  82  CALM    N/A
#IMBLER SCHOOL  N/A         34  28  78  S5      30.00S
#ISLAND CITY 4N N/A         45  44  96  CALM    29.95F
#LADD CYN DOT   N/A         35  28  75  S14     N/A    WCI 26
#UNION 1S       N/A         34  28  78  S7      30.04F
$$

ORZ050-210410-
WALLOWA COUNTY

CITY            SKY/WX      TMP DP  RH  WIND    PRES   REMARKS
#ENTERPRISE AP  N/A         29  26  88  CALM    29.95S
#ENTERPRISE HS  N/A         31  29  92  CALM    30.03S
#IMNAHA SCHOOL  N/A         30  27  88  S1      30.03F
#IMNAHA 10S     N/A         33  29  85  CALM    30.01S
#JOSEPH 3N      N/A         28  25  88  CALM    30.03S
#JOSEPH 3W      N/A         N/A N/A N/A CALM    29.83F
#LOSTINE        N/A         30  27  88  CALM    29.97S
#MT HOWARD 8000 N/A         28  21  75  CALM    29.94F
#PROMISE 1S     N/A         29  26  88  CALM    30.24R
#SHEEP RDG 7000 N/A         31  25  78  CALM    29.99S
#WALLOWA SCHOOL N/A         30  28  92  CALM    31.15F



$$



USA.gov is the U.S. government's official web portal to all federal, state and local government web resources and services.